﻿測定場所 (Monitoring sites),日付 (Measurement date),時間 (Measurement time),線量率 最大値 (max) μGy/h,線量率 最小値 (min) μGy/h,線量率 平均値 (average) μGy/h,
足立 (Adachi),2019-06-16,23:01～24:00,0.0313,0.0278,0.0295,
足立 (Adachi),2019-06-16,22:01～23:00,0.0315,0.0272,0.0291,
足立 (Adachi),2019-06-16,21:01～22:00,0.0313,0.0275,0.0293,
足立 (Adachi),2019-06-16,20:01～21:00,0.0311,0.0269,0.0291,
足立 (Adachi),2019-06-16,19:01～20:00,0.0317,0.0278,0.0294,
足立 (Adachi),2019-06-16,18:01～19:00,0.0319,0.0276,0.0297,
足立 (Adachi),2019-06-16,17:01～18:00,0.0311,0.0275,0.0294,
足立 (Adachi),2019-06-16,16:01～17:00,0.0309,0.0276,0.0295,
足立 (Adachi),2019-06-16,15:01～16:00,0.0314,0.0275,0.0294,
足立 (Adachi),2019-06-16,14:01～15:00,0.0315,0.0274,0.0293,
足立 (Adachi),2019-06-16,13:01～14:00,0.0314,0.0260,0.0295,
足立 (Adachi),2019-06-16,12:01～13:00,0.0307,0.0275,0.0293,
足立 (Adachi),2019-06-16,11:01～12:00,0.0311,0.0272,0.0293,
足立 (Adachi),2019-06-16,10:01～11:00,0.0311,0.0272,0.0295,
足立 (Adachi),2019-06-16,09:01～10:00,0.0316,0.0273,0.0293,
足立 (Adachi),2019-06-16,08:01～09:00,0.0313,0.0281,0.0297,
足立 (Adachi),2019-06-16,07:01～08:00,0.0309,0.0277,0.0293,
足立 (Adachi),2019-06-16,06:01～07:00,0.0307,0.0275,0.0293,
足立 (Adachi),2019-06-16,05:01～06:00,0.0323,0.0276,0.0297,
足立 (Adachi),2019-06-16,04:01～05:00,0.0320,0.0272,0.0295,
足立 (Adachi),2019-06-16,03:01～04:00,0.0324,0.0282,0.0307,
足立 (Adachi),2019-06-16,02:01～03:00,0.0376,0.0309,0.0343,
足立 (Adachi),2019-06-16,01:01～02:00,0.0420,0.0331,0.0375,
足立 (Adachi),2019-06-16,00:01～01:00,0.0337,0.0281,0.0304,
足立 (Adachi),2019-06-15,23:01～24:00,0.0308,0.0270,0.0290,
足立 (Adachi),2019-06-15,22:01～23:00,0.0306,0.0271,0.0290,
足立 (Adachi),2019-06-15,21:01～22:00,0.0319,0.0275,0.0294,
足立 (Adachi),2019-06-15,20:01～21:00,0.0323,0.0288,0.0304,
足立 (Adachi),2019-06-15,19:01～20:00,0.0360,0.0300,0.0329,
足立 (Adachi),2019-06-15,18:01～19:00,0.0436,0.0333,0.0391,
足立 (Adachi),2019-06-15,17:01～18:00,0.0431,0.0330,0.0361,
足立 (Adachi),2019-06-15,16:01～17:00,0.0439,0.0342,0.0388,
足立 (Adachi),2019-06-15,15:01～16:00,0.0507,0.0405,0.0440,
足立 (Adachi),2019-06-15,14:01～15:00,0.0514,0.0450,0.0487,
足立 (Adachi),2019-06-15,13:01～14:00,0.0520,0.0447,0.0480,
足立 (Adachi),2019-06-15,12:01～13:00,0.0470,0.0347,0.0398,
足立 (Adachi),2019-06-15,11:01～12:00,0.0390,0.0342,0.0366,
足立 (Adachi),2019-06-15,10:01～11:00,0.0404,0.0353,0.0371,
足立 (Adachi),2019-06-15,09:01～10:00,0.0396,0.0339,0.0364,
足立 (Adachi),2019-06-15,08:01～09:00,0.0380,0.0330,0.0353,
足立 (Adachi),2019-06-15,07:01～08:00,0.0403,0.0347,0.0367,
足立 (Adachi),2019-06-15,06:01～07:00,0.0395,0.0340,0.0364,
足立 (Adachi),2019-06-15,05:01～06:00,0.0425,0.0349,0.0378,
足立 (Adachi),2019-06-15,04:01～05:00,0.0425,0.0356,0.0387,
足立 (Adachi),2019-06-15,03:01～04:00,0.0403,0.0334,0.0368,
足立 (Adachi),2019-06-15,02:01～03:00,0.0383,0.0332,0.0354,
足立 (Adachi),2019-06-15,01:01～02:00,0.0365,0.0286,0.0327,
足立 (Adachi),2019-06-15,00:01～01:00,0.0329,0.0289,0.0309,
足立 (Adachi),2019-06-14,23:01～24:00,0.0327,0.0290,0.0309,
足立 (Adachi),2019-06-14,22:01～23:00,0.0335,0.0273,0.0303,
足立 (Adachi),2019-06-14,21:01～22:00,0.0315,0.0275,0.0295,
足立 (Adachi),2019-06-14,20:01～21:00,0.0311,0.0278,0.0295,
足立 (Adachi),2019-06-14,19:01～20:00,0.0322,0.0277,0.0295,
足立 (Adachi),2019-06-14,18:01～19:00,0.0313,0.0274,0.0294,
足立 (Adachi),2019-06-14,17:01～18:00,0.0314,0.0273,0.0292,
足立 (Adachi),2019-06-14,16:01～17:00,0.0306,0.0275,0.0291,
足立 (Adachi),2019-06-14,15:01～16:00,0.0316,0.0274,0.0294,
足立 (Adachi),2019-06-14,14:01～15:00,0.0310,0.0272,0.0289,
足立 (Adachi),2019-06-14,13:01～14:00,0.0306,0.0269,0.0290,
足立 (Adachi),2019-06-14,12:01～13:00,0.0313,0.0273,0.0291,
足立 (Adachi),2019-06-14,11:01～12:00,0.0308,0.0273,0.0293,
足立 (Adachi),2019-06-14,10:01～11:00,0.0310,0.0270,0.0291,
足立 (Adachi),2019-06-14,09:01～10:00,0.0306,0.0268,0.0289,
足立 (Adachi),2019-06-14,08:01～09:00,0.0319,0.0271,0.0287,
足立 (Adachi),2019-06-14,07:01～08:00,0.0306,0.0273,0.0290,
足立 (Adachi),2019-06-14,06:01～07:00,0.0308,0.0272,0.0292,
足立 (Adachi),2019-06-14,05:01～06:00,0.0310,0.0260,0.0290,
足立 (Adachi),2019-06-14,04:01～05:00,0.0309,0.0272,0.0290,
足立 (Adachi),2019-06-14,03:01～04:00,0.0310,0.0274,0.0291,
足立 (Adachi),2019-06-14,02:01～03:00,0.0307,0.0274,0.0289,
足立 (Adachi),2019-06-14,01:01～02:00,0.0314,0.0269,0.0291,
足立 (Adachi),2019-06-14,00:01～01:00,0.0313,0.0271,0.0292,
足立 (Adachi),2019-06-13,23:01～24:00,0.0312,0.0273,0.0289,
足立 (Adachi),2019-06-13,22:01～23:00,0.0312,0.0269,0.0290,
足立 (Adachi),2019-06-13,21:01～22:00,0.0310,0.0270,0.0289,
足立 (Adachi),2019-06-13,20:01～21:00,0.0307,0.0275,0.0289,
足立 (Adachi),2019-06-13,19:01～20:00,0.0306,0.0274,0.0288,
足立 (Adachi),2019-06-13,18:01～19:00,0.0311,0.0276,0.0293,
足立 (Adachi),2019-06-13,17:01～18:00,0.0304,0.0273,0.0288,
足立 (Adachi),2019-06-13,16:01～17:00,0.0309,0.0267,0.0292,
足立 (Adachi),2019-06-13,15:01～16:00,0.0305,0.0275,0.0290,
足立 (Adachi),2019-06-13,14:01～15:00,0.0310,0.0276,0.0293,
足立 (Adachi),2019-06-13,13:01～14:00,0.0314,0.0270,0.0293,
足立 (Adachi),2019-06-13,12:01～13:00,0.0311,0.0272,0.0294,
足立 (Adachi),2019-06-13,11:01～12:00,0.0313,0.0267,0.0289,
足立 (Adachi),2019-06-13,10:01～11:00,0.0308,0.0270,0.0289,
足立 (Adachi),2019-06-13,09:01～10:00,0.0319,0.0271,0.0289,
足立 (Adachi),2019-06-13,08:01～09:00,0.0313,0.0271,0.0289,
足立 (Adachi),2019-06-13,07:01～08:00,0.0311,0.0265,0.0286,
足立 (Adachi),2019-06-13,06:01～07:00,0.0307,0.0268,0.0288,
足立 (Adachi),2019-06-13,05:01～06:00,0.0313,0.0265,0.0287,
足立 (Adachi),2019-06-13,04:01～05:00,0.0309,0.0273,0.0289,
足立 (Adachi),2019-06-13,03:01～04:00,0.0309,0.0268,0.0289,
足立 (Adachi),2019-06-13,02:01～03:00,0.0310,0.0274,0.0289,
足立 (Adachi),2019-06-13,01:01～02:00,0.0313,0.0265,0.0292,
足立 (Adachi),2019-06-13,00:01～01:00,0.0311,0.0272,0.0291,
足立 (Adachi),2019-06-12,23:01～24:00,0.0316,0.0270,0.0288,
足立 (Adachi),2019-06-12,22:01～23:00,0.0308,0.0272,0.0290,
足立 (Adachi),2019-06-12,21:01～22:00,0.0320,0.0271,0.0292,
足立 (Adachi),2019-06-12,20:01～21:00,0.0314,0.0264,0.0292,
足立 (Adachi),2019-06-12,19:01～20:00,0.0307,0.0267,0.0290,
足立 (Adachi),2019-06-12,18:01～19:00,0.0306,0.0272,0.0289,
足立 (Adachi),2019-06-12,17:01～18:00,0.0310,0.0270,0.0286,
足立 (Adachi),2019-06-12,16:01～17:00,0.0305,0.0266,0.0289,
足立 (Adachi),2019-06-12,15:01～16:00,0.0304,0.0274,0.0288,
足立 (Adachi),2019-06-12,14:01～15:00,0.0305,0.0272,0.0290,
足立 (Adachi),2019-06-12,13:01～14:00,0.0313,0.0269,0.0288,
足立 (Adachi),2019-06-12,12:01～13:00,0.0310,0.0274,0.0289,
足立 (Adachi),2019-06-12,11:01～12:00,0.0316,0.0266,0.0289,
足立 (Adachi),2019-06-12,10:01～11:00,0.0300,0.0266,0.0284,
足立 (Adachi),2019-06-12,09:01～10:00,0.0302,0.0267,0.0283,
足立 (Adachi),2019-06-12,08:01～09:00,0.0301,0.0267,0.0286,
足立 (Adachi),2019-06-12,07:01～08:00,0.0312,0.0266,0.0287,
足立 (Adachi),2019-06-12,06:01～07:00,0.0305,0.0272,0.0289,
足立 (Adachi),2019-06-12,05:01～06:00,0.0313,0.0272,0.0292,
足立 (Adachi),2019-06-12,04:01～05:00,0.0315,0.0282,0.0297,
足立 (Adachi),2019-06-12,03:01～04:00,0.0341,0.0280,0.0311,
足立 (Adachi),2019-06-12,02:01～03:00,0.0369,0.0321,0.0344,
足立 (Adachi),2019-06-12,01:01～02:00,0.0368,0.0314,0.0340,
足立 (Adachi),2019-06-12,00:01～01:00,0.0360,0.0286,0.0313,
足立 (Adachi),2019-06-11,23:01～24:00,0.0339,0.0285,0.0315,
足立 (Adachi),2019-06-11,22:01～23:00,0.0388,0.0321,0.0356,
足立 (Adachi),2019-06-11,21:01～22:00,0.0369,0.0276,0.0315,
足立 (Adachi),2019-06-11,20:01～21:00,0.0308,0.0276,0.0292,
足立 (Adachi),2019-06-11,19:01～20:00,0.0325,0.0267,0.0292,
足立 (Adachi),2019-06-11,18:01～19:00,0.0312,0.0274,0.0293,
足立 (Adachi),2019-06-11,17:01～18:00,0.0305,0.0272,0.0287,
足立 (Adachi),2019-06-11,16:01～17:00,0.0304,0.0262,0.0287,
足立 (Adachi),2019-06-11,15:01～16:00,0.0312,0.0271,0.0289,
足立 (Adachi),2019-06-11,14:01～15:00,0.0312,0.0269,0.0287,
足立 (Adachi),2019-06-11,13:01～14:00,0.0302,0.0270,0.0284,
足立 (Adachi),2019-06-11,12:01～13:00,0.0310,0.0262,0.0280,
足立 (Adachi),2019-06-11,11:01～12:00,0.0307,0.0268,0.0287,
足立 (Adachi),2019-06-11,10:01～11:00,0.0304,0.0271,0.0287,
足立 (Adachi),2019-06-11,09:01～10:00,0.0301,0.0270,0.0286,
足立 (Adachi),2019-06-11,08:01～09:00,0.0301,0.0267,0.0284,
足立 (Adachi),2019-06-11,07:01～08:00,0.0298,0.0267,0.0284,
足立 (Adachi),2019-06-11,06:01～07:00,0.0307,0.0269,0.0285,
足立 (Adachi),2019-06-11,05:01～06:00,0.0311,0.0275,0.0293,
足立 (Adachi),2019-06-11,04:01～05:00,0.0316,0.0276,0.0299,
足立 (Adachi),2019-06-11,03:01～04:00,0.0326,0.0279,0.0304,
足立 (Adachi),2019-06-11,02:01～03:00,0.0331,0.0282,0.0303,
足立 (Adachi),2019-06-11,01:01～02:00,0.0342,0.0281,0.0311,
足立 (Adachi),2019-06-11,00:01～01:00,0.0418,0.0316,0.0357,
足立 (Adachi),2019-06-10,23:01～24:00,0.0438,0.0367,0.0398,
足立 (Adachi),2019-06-10,22:01～23:00,0.0401,0.0354,0.0374,
足立 (Adachi),2019-06-10,21:01～22:00,0.0389,0.0339,0.0364,
足立 (Adachi),2019-06-10,20:01～21:00,0.0403,0.0340,0.0370,
足立 (Adachi),2019-06-10,19:01～20:00,0.0447,0.0342,0.0394,
足立 (Adachi),2019-06-10,18:01～19:00,0.0488,0.0416,0.0450,
足立 (Adachi),2019-06-10,17:01～18:00,0.0489,0.0420,0.0453,
足立 (Adachi),2019-06-10,16:01～17:00,0.0504,0.0427,0.0463,
足立 (Adachi),2019-06-10,15:01～16:00,0.0501,0.0445,0.0471,
足立 (Adachi),2019-06-10,14:01～15:00,0.0493,0.0400,0.0447,
足立 (Adachi),2019-06-10,13:01～14:00,0.0509,0.0422,0.0465,
足立 (Adachi),2019-06-10,12:01～13:00,0.0536,0.0462,0.0496,
足立 (Adachi),2019-06-10,11:01～12:00,0.0520,0.0433,0.0465,
足立 (Adachi),2019-06-10,10:01～11:00,0.0517,0.0421,0.0457,
足立 (Adachi),2019-06-10,09:01～10:00,0.0479,0.0345,0.0407,
足立 (Adachi),2019-06-10,08:01～09:00,0.0371,0.0330,0.0354,
足立 (Adachi),2019-06-10,07:01～08:00,0.0439,0.0351,0.0385,
足立 (Adachi),2019-06-10,06:01～07:00,0.0491,0.0409,0.0450,
足立 (Adachi),2019-06-10,05:01～06:00,0.0494,0.0366,0.0439,
足立 (Adachi),2019-06-10,04:01～05:00,0.0404,0.0325,0.0357,
足立 (Adachi),2019-06-10,03:01～04:00,0.0360,0.0308,0.0333,
足立 (Adachi),2019-06-10,02:01～03:00,0.0379,0.0313,0.0342,
足立 (Adachi),2019-06-10,01:01～02:00,0.0414,0.0356,0.0377,
足立 (Adachi),2019-06-10,00:01～01:00,0.0409,0.0346,0.0373,
